MST,Max TemperatureF,Mean TemperatureF,Min TemperatureF,Max Dew PointF,MeanDew PointF,Min DewpointF,Max Humidity, Mean Humidity, Min Humidity, Max Sea Level PressureIn, Mean Sea Level PressureIn, Min Sea Level PressureIn, Max VisibilityMiles, Mean VisibilityMiles, Min VisibilityMiles, Max Wind SpeedMPH, Mean Wind SpeedMPH, Max Gust SpeedMPH,PrecipitationIn, CloudCover, Events, WindDirDegrees
2012-11-1,58,45,32,30,27,24,64,46,28,30.02,29.89,29.80,10,10,10,23,7,30,0.00,3,,249
2012-11-2,56,41,25,28,24,21,81,54,26,30.21,30.13,30.04,10,10,10,7,2,8,0.00,1,,24
2012-11-3,55,41,26,29,25,20,81,55,28,30.30,30.20,30.14,10,10,10,15,1,18,0.00,3,,241
2012-11-4,61,47,32,34,31,28,76,56,35,30.42,30.33,30.23,10,10,10,10,2,21,0.00,2,,307
2012-11-5,61,46,30,36,32,29,82,61,39,30.45,30.35,30.25,10,10,10,6,2,8,0.00,0,,179
2012-11-6,62,46,30,33,30,26,92,62,32,30.37,30.21,30.06,10,10,10,10,1,13,0.00,0,,325
2012-11-7,64,47,29,34,29,23,85,58,30,30.04,29.93,29.80,10,10,4,18,3,25,T,3,,239
2012-11-8,47,42,36,37,32,27,85,71,57,29.75,29.61,29.49,10,10,3,28,5,32,0.18,7,Rain-Thunderstorm,297
2012-11-9,40,33,26,30,26,19,92,73,54,29.67,29.60,29.52,10,6,1,21,4,25,0.13,7,Rain-Snow,36
2012-11-10,29,21,13,23,17,10,92,78,63,30.12,29.81,29.64,10,7,1,7,1,8,0.04,6,Snow,308
2012-11-11,29,18,6,11,7,3,84,63,42,30.49,30.33,30.13,10,10,10,8,2,10,0.00,2,,215
2012-11-12,31,22,13,21,14,8,80,63,46,30.53,30.45,30.38,10,10,10,6,0,7,0.00,6,,330
2012-11-13,36,29,21,26,22,18,88,72,56,30.40,30.33,30.24,10,10,10,5,1,6,0.00,7,,56
2012-11-14,41,33,25,28,25,21,88,74,59,30.37,30.26,30.20,10,10,9,6,1,8,0.00,5,,207
2012-11-15,40,32,23,23,21,18,88,68,48,30.42,30.31,30.22,10,10,10,6,1,8,0.00,4,,63
2012-11-16,41,32,23,28,24,19,85,68,50,30.20,30.12,30.05,10,10,8,7,1,8,0.00,6,,332
2012-11-17,48,37,25,34,28,22,92,71,50,30.11,29.95,29.74,10,10,8,20,4,26,T,5,Rain,195
2012-11-18,48,37,26,36,23,4,82,50,17,30.09,29.89,29.70,10,10,4,14,6,18,0.08,3,Rain,190
2012-11-19,49,37,25,30,24,18,81,62,42,30.22,30.11,30.03,10,10,10,22,8,30,0.00,5,,164
2012-11-20,49,45,41,39,33,29,76,61,46,29.99,29.93,29.81,10,10,9,16,8,22,0.10,7,Rain,174
2012-11-21,48,37,26,37,30,16,82,68,53,30.15,29.86,29.69,10,10,6,24,7,31,0.09,6,Rain,202
2012-11-22,40,31,22,22,17,11,81,56,30,30.59,30.43,30.14,10,10,9,9,2,12,T,2,Snow,147
2012-11-23,35,27,19,22,18,14,81,64,47,30.61,30.48,30.32,10,10,8,6,1,7,0.00,0,,148
2012-11-24,44,35,26,34,29,22,92,81,70,30.28,30.15,30.00,10,10,7,15,1,20,0.08,7,Rain,308
2012-11-25,45,34,23,34,29,14,96,73,49,30.27,30.01,29.93,10,8,1,20,6,24,0.04,5,Rain,46
2012-11-26,32,23,14,19,14,9,81,65,49,30.41,30.35,30.28,10,10,10,8,1,9,0.00,0,,55
2012-11-27,33,24,14,19,15,9,84,68,51,30.44,30.36,30.30,10,10,7,6,1,6,0.00,0,,169
2012-11-28,34,26,18,24,20,13,84,70,56,30.30,30.17,30.00,10,10,8,5,0,6,0.00,2,,225
2012-11-29,48,37,25,28,25,21,85,65,45,30.10,29.98,29.88,10,10,9,18,4,23,0.00,6,,172
2012-11-30,47,40,33,36,33,27,85,69,53,29.86,29.73,29.65,10,10,8,17,6,23,0.07,7,Rain,188